Regional Weather Roundup
Issued by NWS Midland/Odessa, TX

Skip options and go directly to product.
Home | Oldest Version | Previous Version | Current Version | All | Text Only | Save Text | Print | Product List | Glossary Off

Skip product version selection by date and time.   

194
ASUS44 KMAF 072210
RWRMAF
MIDLAND AREA WEATHER ROUNDUP
NATIONAL WEATHER SERVICE MIDLAND TX
500 PM CDT TUE JUL 07 2015

...IN SOUTHWEST TEXAS AND SOUTHEAST NEW MEXICO...

CITY           SKY/WX    TMP DP  RH WIND       PRES   REMARKS
ALPINE         PTSUNNY   83  61  46 N8        30.13F
ANDREWS        CLOUDY    77  66  68 N21       30.03F
ARTESIA        MOSUNNY   79  63  57 VRB7G15   30.06F
BIG SPRING     CLOUDY    79  69  71 N9        30.01F
CARLSBAD       PTSUNNY   82  63  52 N12       30.03F
DRYDEN           N/A     87  72  60 S15       29.91F
FORT STOCKTON  SUNNY     89  68  49 N14       29.96F
GUAD PASS      MOSUNNY   76  60  57 NE25G32   30.13F
HOBBS          PTSUNNY   75  64  69 N10       30.08F
MARFA          MOSUNNY  N/A N/A N/A NE10G17   30.11S
MIDLAND AIRPK  CLOUDY    81  68  63 NE16G22   30.00F
MIDLAND INTL   PTSUNNY   82  68  62 N18       29.98F
ODESSA         MOSUNNY   83  65  54 NE18      30.00F
PECOS          PTSUNNY   89  61  39 N10G21    29.95F
PRESIDIO       FAIR      88  66  48 MISG      29.90F
SEMINOLE       CLOUDY    77  64  63 N8        30.06F
SNYDER         CLOUDY    74  70  89 NE7       30.00F
WINK           PTSUNNY   88  63  43 N16G24    29.96F
$$
...OTHER STATIONS IN TEXAS...

CITY           SKY/WX    TMP DP  RH WIND       PRES   REMARKS
ABILENE        CLOUDY    74  72  93 W5        29.97F
AMARILLO       RAIN      67  59  75 NE14      30.11F
AUSTIN         CLOUDY    89  73  59 S17G23    29.93F
BROWNSVILLE    PTSUNNY   90  77  65 SE23G33   29.94F HX 103
CORPUS CHRISTI PTSUNNY   91  75  59 SE23G35   29.94F HX 101
DALLAS FTW     CLOUDY    89  69  51 S22       29.91F
DEL RIO        PTSUNNY   84  70  62 S10       29.90F
EL PASO        MOSUNNY   93  56  28 VRB5      29.95F
HOUSTON INT    PTSUNNY   89  74  60 S16G23    29.98F
LUBBOCK        CLOUDY    69  63  81 N12       30.07S
SAN ANGELO     TSTM      74  71  91 S3        29.94F
SAN ANTONIO    LGT RAIN  88  74  63 SE18G28   29.94F
WACO           CLOUDY    89  70  53 S12       29.92F
WICHITA FALLS  NOT AVBL
$$
...OTHER LOCATIONS IN NEW MEXICO...

CITY           SKY/WX    TMP DP  RH WIND       PRES   REMARKS
ALAMAGORDO     MOSUNNY   90  52  27 W9G16     29.98F
ALBUQUERQUE    CLOUDY    79  54  41 VRB3      30.12F
CANNON AFB     NOT AVBL
CLOVIS         CLOUDY    66  57  72 NE10        N/A
HOLLOMAN AFB   MOSUNNY   90  54  29 NW10G17   29.95F THUNDER
ROSWELL        PTSUNNY   81  60  48 E13       30.07F
RUIDOSO        PTSUNNY   61  59  94 E12G17    30.24F
SANTA FE       PTSUNNY   75  53  46 S14       30.17F
TRUTH OR CONSE CLOUDY    78  52  40 NW14G24   30.08S
TUCUMCARI      CLOUDY    74  55  51 E8        30.12F HAZE
$$

USA.gov is the U.S. government's official web portal to all federal, state and local government web resources and services.